Regional Weather Roundup
Issued by NWS

Home | Current Version | Previous Version | Graphics & Text | Print | Product List | Glossary On
Versions: 1 2 3 4 5 6 7 8 9 10 11 12 13 14 15 16 17 18 19 20 21 22 23 24 25 26 27 28 29 30 31 32 33 34 35 36 37 38 39 40 41 42 43 44 45 46 47 48 49 50
000
ASUS45 KBOI 270910
RWRID
WEATHER ROUNDUP FOR IDAHO
NATIONAL WEATHER SERVICE BOISE ID
200 AM MST FRI FEB 27 2015

NOTE: "FAIR" INDICATES FEW OR NO CLOUDS BELOW 12000 FEET
WITH NO SIGNIFICANT WEATHER AND/OR OBSTRUCTIONS TO VISIBILITY

IDZ012-014-271000-
SOUTHWEST IDAHO


CITY           SKY/WX    TMP DP  RH WIND       PRES   REMARKS
BOISE          CLOUDY    37  32  82 S3        29.86F
CALDWELL       CLOUDY    37  28  70 CALM      29.88S
MOUNTAIN HOME  CLOUDY    35  31  85 NW3       29.85S
$$

IDZ016-017-271000-
SOUTHCENTRAL IDAHO


CITY           SKY/WX    TMP DP  RH WIND       PRES   REMARKS
BURLEY         CLOUDY    34  30  85 SW5       29.83F WCI  30
JEROME         MOCLDY    32  28  85 SW6       29.84F WCI  26
TWIN FALLS     CLOUDY    35  29  78 S10       29.84F WCI  27
$$

IDZ019>023-271000-
SOUTHEAST IDAHO


CITY           SKY/WX    TMP DP  RH WIND       PRES   REMARKS
IDAHO FALLS    MOCLDY    25  12  58 NE3       29.86F
POCATELLO      CLOUDY    30  23  75 CALM      29.86F
REXBURG        CLOUDY    20   9  62 NE9       29.86F WCI   9
$$

IDZ006-010-011-018-031-032-271000-
CENTRAL IDAHO MOUNTAINS


CITY           SKY/WX    TMP DP  RH WIND       PRES   REMARKS
MCCALL         CLOUDY    27  25  92 CALM      29.80F
HAILEY         CLOUDY    30  28  93 S6        29.83F WCI  24
STANLEY          N/A     25  17  72 CALM      29.79F
SALMON         MOCLDY    27  19  74 CALM      29.86S
CHALLIS        CLOUDY    29  23  78 SE3       29.82F
$$

IDZ002-004-006-007-026-271000-
NORTHERN IDAHO


CITY           SKY/WX    TMP DP  RH WIND       PRES   REMARKS
LEWISTON       PTCLDY    37  36  96 S3        29.88F
LOWELL           N/A     36  31  82 N5        29.92F WCI  32
COEUR D`ALENE  CLEAR     30  27  86 NE8       29.88F WCI  23
MULLAN PASS    LGT SNOW  20  17  88 S7        29.77F FOG     WCI  11
$$


USA.gov is the U.S. government's official web portal to all federal, state and local government web resources and services.